TimeCST,TemperatureF,Dew PointF,Humidity,Sea Level PressureIn,VisibilityMPH,Wind Direction,Wind SpeedMPH,Gust SpeedMPH,PrecipitationIn,Events,Conditions,WindDirDegrees,DateUTC
12:14 AM,41.0,37.4,87,30.13,7.0,Calm,Calm,-,N/A,,Mostly Cloudy,0,2012-11-05 06:14:00
12:34 AM,41.0,37.4,87,30.13,7.0,Calm,Calm,-,N/A,,Scattered Clouds,0,2012-11-05 06:34:00
12:55 AM,42.8,37.4,81,30.13,7.0,Calm,Calm,-,N/A,,Overcast,0,2012-11-05 06:55:00
1:14 AM,42.8,37.4,81,30.13,7.0,Calm,Calm,-,N/A,,Light Drizzle,0,2012-11-05 07:14:00
1:34 AM,41.0,37.4,87,30.13,7.0,Calm,Calm,-,N/A,Rain,Rain,0,2012-11-05 07:34:00
1:54 AM,41.0,39.2,93,30.14,5.0,Calm,Calm,-,N/A,,Light Drizzle,0,2012-11-05 07:54:00
2:14 AM,41.0,37.4,87,30.14,5.0,Calm,Calm,-,N/A,,Overcast,0,2012-11-05 08:14:00
2:34 AM,41.0,37.4,87,30.14,5.0,Calm,Calm,-,N/A,,Mostly Cloudy,0,2012-11-05 08:34:00
2:54 AM,41.0,37.4,87,30.13,7.0,Calm,Calm,-,N/A,,Mostly Cloudy,0,2012-11-05 08:54:00
3:15 AM,41.0,37.4,87,30.14,7.0,Calm,Calm,-,N/A,Rain,Light Rain,0,2012-11-05 09:15:00
3:34 AM,41.0,37.4,87,30.14,7.0,Calm,Calm,-,N/A,,Light Drizzle,0,2012-11-05 09:34:00
3:54 AM,41.0,39.2,93,30.14,5.0,Calm,Calm,-,N/A,,Overcast,0,2012-11-05 09:54:00
4:14 AM,41.0,37.4,87,30.14,5.0,Calm,Calm,-,N/A,,Mostly Cloudy,0,2012-11-05 10:14:00
4:35 AM,39.2,37.4,93,30.14,5.0,Calm,Calm,-,N/A,,Scattered Clouds,0,2012-11-05 10:35:00
4:54 AM,39.2,37.4,93,30.14,5.0,Calm,Calm,-,N/A,,Scattered Clouds,0,2012-11-05 10:54:00
5:14 AM,39.2,37.4,93,30.14,5.0,Calm,Calm,-,N/A,,Mostly Cloudy,0,2012-11-05 11:14:00
5:34 AM,39.2,37.4,93,30.14,7.0,Calm,Calm,-,N/A,,Overcast,0,2012-11-05 11:34:00
5:54 AM,39.2,37.4,93,30.14,7.0,Calm,Calm,-,N/A,,Mostly Cloudy,0,2012-11-05 11:54:00
6:14 AM,39.2,37.4,93,30.14,5.0,Calm,Calm,-,N/A,,Mostly Cloudy,0,2012-11-05 12:14:00
6:34 AM,39.2,37.4,93,30.15,5.0,Calm,Calm,-,N/A,,Mostly Cloudy,0,2012-11-05 12:34:00
6:55 AM,39.2,37.4,93,30.15,7.0,Calm,Calm,-,N/A,,Mostly Cloudy,0,2012-11-05 12:55:00
7:14 AM,39.2,37.4,93,30.15,5.0,Calm,Calm,-,N/A,,Overcast,0,2012-11-05 13:14:00
7:34 AM,39.2,37.4,93,30.16,5.0,Calm,Calm,-,N/A,,Overcast,0,2012-11-05 13:34:00
7:54 AM,39.2,37.4,93,30.16,5.0,Calm,Calm,-,N/A,,Overcast,0,2012-11-05 13:54:00
8:14 AM,39.2,37.4,93,30.17,7.0,Calm,Calm,-,N/A,,Mostly Cloudy,0,2012-11-05 14:14:00
8:33 AM,39.2,37.4,93,30.17,7.0,Calm,Calm,-,N/A,,Mostly Cloudy,0,2012-11-05 14:33:00
8:54 AM,39.2,37.4,93,30.17,7.0,Calm,Calm,-,N/A,,Mostly Cloudy,0,2012-11-05 14:54:00
9:14 AM,41.0,35.6,81,30.17,7.0,Calm,Calm,-,N/A,,Mostly Cloudy,0,2012-11-05 15:14:00
9:34 AM,41.0,35.6,81,30.17,10.0,Calm,Calm,-,N/A,,Scattered Clouds,0,2012-11-05 15:34:00
9:54 AM,41.0,35.6,81,30.18,10.0,Calm,Calm,-,N/A,,Mostly Cloudy,0,2012-11-05 15:54:00
10:14 AM,41.0,35.6,81,30.18,10.0,Calm,Calm,-,N/A,,Overcast,0,2012-11-05 16:14:00
10:34 AM,41.0,35.6,81,30.18,10.0,Calm,Calm,-,N/A,,Overcast,0,2012-11-05 16:34:00
10:54 AM,42.8,35.6,76,30.18,10.0,Calm,Calm,-,N/A,,Mostly Cloudy,0,2012-11-05 16:54:00
11:14 AM,42.8,35.6,76,30.18,10.0,Calm,Calm,-,N/A,,Mostly Cloudy,0,2012-11-05 17:14:00
11:34 AM,44.6,35.6,71,30.17,10.0,Calm,Calm,-,N/A,,Scattered Clouds,0,2012-11-05 17:34:00
11:54 AM,44.6,35.6,71,30.16,10.0,Calm,Calm,-,N/A,,Scattered Clouds,0,2012-11-05 17:54:00
12:14 PM,44.6,35.6,71,30.16,10.0,Calm,Calm,-,N/A,,Scattered Clouds,0,2012-11-05 18:14:00
12:34 PM,44.6,35.6,71,30.15,10.0,Calm,Calm,-,N/A,,Mostly Cloudy,0,2012-11-05 18:34:00
12:54 PM,44.6,35.6,71,30.14,10.0,Calm,Calm,-,N/A,,Mostly Cloudy,0,2012-11-05 18:54:00
1:14 PM,44.6,35.6,71,30.13,10.0,Calm,Calm,-,N/A,,Mostly Cloudy,0,2012-11-05 19:14:00
1:34 PM,46.4,35.6,66,30.12,10.0,Calm,Calm,-,N/A,,Mostly Cloudy,0,2012-11-05 19:34:00
1:54 PM,46.4,35.6,66,30.12,10.0,Calm,Calm,-,N/A,,Overcast,0,2012-11-05 19:54:00
2:14 PM,44.6,35.6,71,30.11,10.0,Calm,Calm,-,N/A,,Overcast,0,2012-11-05 20:14:00
2:34 PM,44.6,35.6,71,30.12,10.0,Calm,Calm,-,N/A,,Overcast,0,2012-11-05 20:34:00
2:54 PM,44.6,35.6,71,30.12,10.0,Calm,Calm,-,N/A,,Overcast,0,2012-11-05 20:54:00
3:14 PM,44.6,35.6,71,30.12,10.0,Calm,Calm,-,N/A,,Overcast,0,2012-11-05 21:14:00
3:54 PM,44.6,35.6,71,30.11,10.0,Calm,Calm,-,N/A,,Mostly Cloudy,0,2012-11-05 21:54:00
4:14 PM,44.6,35.6,71,30.10,10.0,Calm,Calm,-,N/A,,Overcast,0,2012-11-05 22:14:00
4:35 PM,42.8,35.6,76,30.11,10.0,Calm,Calm,-,N/A,,Mostly Cloudy,0,2012-11-05 22:35:00
4:54 PM,42.8,37.4,81,30.11,10.0,Calm,Calm,-,N/A,,Mostly Cloudy,0,2012-11-05 22:54:00
5:14 PM,42.8,37.4,81,30.10,10.0,Calm,Calm,-,N/A,,Overcast,0,2012-11-05 23:14:00
5:34 PM,42.8,37.4,81,30.10,10.0,Calm,Calm,-,N/A,,Overcast,0,2012-11-05 23:34:00
5:54 PM,42.8,37.4,81,30.09,10.0,Calm,Calm,-,N/A,,Overcast,0,2012-11-05 23:54:00
6:14 PM,42.8,37.4,81,30.09,10.0,Calm,Calm,-,N/A,,Overcast,0,2012-11-06 00:14:00
6:34 PM,42.8,37.4,81,30.09,10.0,Calm,Calm,-,N/A,,Overcast,0,2012-11-06 00:34:00
6:54 PM,42.8,37.4,81,30.08,10.0,Calm,Calm,-,N/A,,Overcast,0,2012-11-06 00:54:00
7:14 PM,42.8,37.4,81,30.07,10.0,Calm,Calm,-,N/A,,Overcast,0,2012-11-06 01:14:00
7:34 PM,42.8,35.6,76,30.06,10.0,Calm,Calm,-,N/A,,Overcast,0,2012-11-06 01:34:00
7:54 PM,41.0,35.6,81,30.05,10.0,Calm,Calm,-,N/A,,Overcast,0,2012-11-06 01:54:00
8:15 PM,39.2,35.6,87,30.06,10.0,Calm,Calm,-,N/A,,Overcast,0,2012-11-06 02:15:00
8:34 PM,41.0,35.6,81,30.06,10.0,Calm,Calm,-,N/A,,Overcast,0,2012-11-06 02:34:00
8:55 PM,41.0,35.6,81,30.05,10.0,Calm,Calm,-,N/A,,Overcast,0,2012-11-06 02:55:00
9:14 PM,41.0,35.6,81,30.05,10.0,Calm,Calm,-,N/A,,Overcast,0,2012-11-06 03:14:00
9:34 PM,41.0,35.6,81,30.04,10.0,Calm,Calm,-,N/A,,Overcast,0,2012-11-06 03:34:00
9:54 PM,39.2,35.6,87,30.03,10.0,Calm,Calm,-,N/A,,Overcast,0,2012-11-06 03:54:00
10:14 PM,39.2,35.6,87,30.03,10.0,Calm,Calm,-,N/A,,Overcast,0,2012-11-06 04:14:00
10:34 PM,39.2,35.6,87,30.02,7.0,Calm,Calm,-,N/A,,Overcast,0,2012-11-06 04:34:00
10:54 PM,39.2,35.6,87,29.99,10.0,Calm,Calm,-,N/A,,Overcast,0,2012-11-06 04:54:00
11:14 PM,39.2,35.6,87,29.99,10.0,Calm,Calm,-,N/A,,Overcast,0,2012-11-06 05:14:00
11:34 PM,39.2,35.6,87,29.98,7.0,Calm,Calm,-,N/A,,Overcast,0,2012-11-06 05:34:00
11:54 PM,39.2,35.6,87,29.97,7.0,Calm,Calm,-,N/A,,Overcast,0,2012-11-06 05:54:00